EW4659 Weather Reports


time (UTC)temp
C
wind
direction
speed
KPH
gust
KPH
rain 1hr
cm
rain 24hr
cm
rain mn
cm
humidity
%
barometer
mb
20260505181504 20 288 8.0 33.8 0.00 0.00 0.00 62 1008.7
20260505181002 20 160 6.4 33.8 0.00 0.00 0.00 62 1008.7
20260505180504 20 220 11.3 27.4 0.00 0.00 0.00 62 1008.7
20260505180014 20 218 4.8 27.4 0.00 0.00 0.00 62 1008.6
20260505175507 20 205 8.0 19.3 0.00 0.00 0.00 62 1008.7
20260505175007 20 196 6.4 19.3 0.00 0.00 0.00 61 1008.7
20260505174513 20 173 3.2 19.3 0.00 0.00 0.00 61 1008.6
20260505174008 20 284 6.4 19.3 0.00 0.00 0.00 61 1008.6
20260505173512 20 267 6.4 19.3 0.00 0.00 0.00 61 1008.6
20260505173019 20 246 3.2 24.1 0.00 0.00 0.00 62 1008.6
20260505172509 20 119 12.9 24.1 0.00 0.00 0.00 60 1008.7
20260505172013 20 240 6.4 24.1 0.00 0.00 0.00 60 1008.8
20260505171506 21 272 9.7 25.7 0.00 0.00 0.00 60 1008.9
20260505171003 21 275 8.0 25.7 0.00 0.00 0.00 59 1008.8
20260505170504 21 273 6.4 17.7 0.00 0.00 0.00 60 1008.9
20260505170009 21 165 4.8 20.9 0.00 0.00 0.00 60 1008.9
20260505165505 21 215 3.2 20.9 0.00 0.00 0.00 59 1008.8
20260505165006 21 232 6.4 29.0 0.00 0.00 0.00 57 1008.8
20260505164511 21 241 9.7 29.0 0.00 0.00 0.00 57 1008.9
20260505164003 21 209 11.3 27.4 0.00 0.00 0.00 56 1008.7
20260505163509 21 248 9.7 19.3 0.00 0.00 0.00 58 1008.7
20260505163018 21 250 6.4 20.9 0.00 0.00 0.00 60 1008.7
20260505162506 21 210 9.7 20.9 0.00 0.00 0.00 58 1008.8
20260505162010 21 221 4.8 19.3 0.00 0.00 0.00 58 1008.9
20260505161521 21 144 4.8 24.1 0.00 0.00 0.00 59 1009.1
20260505161008 21 207 12.9 25.7 0.00 0.00 0.00 57 1009.0
20260505160512 21 202 6.4 30.6 0.00 0.00 0.00 58 1009.1
20260505153015 20 227 4.8 27.4 0.00 0.00 0.00 62 1009.0
20260505152507 20 212 8.0 27.4 0.00 0.00 0.00 62 1008.9
20260505152011 20 186 3.2 24.1 0.00 0.00 0.00 65 1008.9
20260505151517 20 193 9.7 24.1 0.00 0.00 0.00 65 1008.8
20260505151007 19 207 6.4 22.5 0.00 0.00 0.00 65 1008.8
20260505150506 19 38 4.8 22.5 0.00 0.00 0.00 67 1008.7
20260505140512 17 196 8.0 17.7 0.00 0.00 0.00 76 1008.2
20260505125013 15 202 3.2 16.1 0.00 0.00 0.00 80 1008.4
20260505124529 15 170 4.8 20.9 0.00 0.00 0.00 79 1008.3
20260505124002 15 279 9.7 20.9 0.00 0.00 0.00 79 1008.3
20260505123502 15 194 3.2 14.5 0.00 0.00 0.00 80 1008.2
20260505123007 15 186 4.8 14.5 0.00 0.00 0.00 80 1008.2
20260505122508 15 248 3.2 19.3 0.00 0.00 0.00 79 1008.2
20260505122003 15 192 8.0 19.3 0.00 0.00 0.00 80 1008.1
20260505121514 15 184 3.2 14.5 0.00 0.00 0.00 80 1007.9
20260505121003 15 201 1.6 12.9 0.00 0.00 0.00 79 1007.7
20260505120508 15 252 1.6 12.9 0.00 0.00 0.00 79 1007.6
20260505120029 15 211 4.8 14.5 0.00 0.00 0.00 79 1007.0
20260505115506 15 155 3.2 16.1 0.00 0.00 0.00 79 1007.2
20260505115010 15 206 4.8 16.1 0.00 0.00 0.00 78 1007.3
20260505114522 15 175 1.6 9.7 0.00 0.00 0.00 79 1007.4
20260505114009 15 199 1.6 17.7 0.00 0.00 0.00 78 1007.4
20260505113510 15 172 1.6 17.7 0.00 0.00 0.00 78 1007.3
20260505113025 15 183 3.2 9.7 0.00 0.00 0.00 78 1007.6
20260505112509 15 204 0.0 11.3 0.00 0.00 0.00 77 1007.6
20260505112004 15 234 3.2 12.9 0.00 0.00 0.00 76 1007.6
20260505111515 15 240 4.8 12.9 0.00 0.00 0.00 76 1007.7
20260505111004 15 197 4.8 11.3 0.00 0.00 0.00 76 1007.7
20260505110503 15 253 1.6 12.9 0.00 0.00 0.00 75 1007.7
20260505102011 16 202 1.6 8.0 0.00 0.00 0.00 70 1007.7
20260505101540 16 179 3.2 8.0 0.00 0.00 0.00 70 1007.6
20260505101014 16 225 1.6 6.4 0.00 0.00 0.00 70 1007.7
20260505100506 16 207 0.0 4.8 0.00 0.00 0.00 70 1007.7
20260505100012 16 205 0.0 14.5 0.00 0.00 0.00 70 1007.7
20260505095506 16 218 4.8 14.5 0.00 0.00 0.00 70 1007.7
20260505095010 16 232 0.0 4.8 0.00 0.00 0.00 69 1007.7
20260505094526 16 215 0.0 4.8 0.00 0.00 0.00 69 1007.6
20260505094005 16 262 0.0 9.7 0.00 0.00 0.00 69 1007.7
20260505093508 16 208 1.6 9.7 0.00 0.00 0.00 68 1007.7
20260505093019 16 193 1.6 9.7 0.00 0.00 0.00 67 1007.6
20260505092510 16 223 0.0 12.9 0.00 0.00 0.00 67 1007.4
20260505092012 16 187 0.0 12.9 0.00 0.00 0.00 66 1007.3
20260505091526 17 251 3.2 11.3 0.00 0.00 0.00 66 1007.3
20260505091009 17 208 1.6 14.5 0.00 0.00 0.00 66 1007.3
20260505090510 17 190 1.6 16.1 0.00 0.00 0.00 65 1007.3
20260505090028 17 180 1.6 20.9 0.00 0.00 0.00 65 1007.3
20260505085509 17 232 6.4 20.9 0.00 0.00 0.00 65 1007.2
20260505085007 17 190 3.2 19.3 0.00 0.00 0.00 64 1007.2
20260505084514 17 215 8.0 24.1 0.00 0.00 0.00 63 1007.1
20260505084010 17 300 6.4 24.1 0.00 0.00 0.00 63 1007.1
20260505083507 17 242 6.4 24.1 0.00 0.00 0.00 63 1007.0
20260505083023 17 162 3.2 17.7 0.00 0.00 0.00 62 1006.8
20260505082511 17 201 4.8 19.3 0.00 0.00 0.00 62 1006.8
20260505082010 17 186 8.0 22.5 0.00 0.00 0.00 62 1006.5
20260505081526 17 265 6.4 24.1 0.00 0.00 0.00 62 1006.4
20260505081016 17 277 3.2 24.1 0.00 0.00 0.00 62 1006.3
20260505080510 17 191 8.0 27.4 0.00 0.00 0.00 62 1006.1
20260505080026 17 182 11.3 25.7 0.00 0.00 0.00 62 1006.1
20260505075511 17 228 6.4 27.4 0.00 0.00 0.00 63 1006.0
20260505075019 17 205 9.7 27.4 0.00 0.00 0.00 63 1005.9
20260505074529 17 250 6.4 25.7 0.00 0.00 0.00 63 1005.9
20260505074010 17 189 8.0 24.1 0.00 0.00 0.00 64 1006.1
20260505073515 17 174 6.4 24.1 0.00 0.00 0.00 64 1006.0
20260505073017 17 218 6.4 24.1 0.00 0.00 0.00 64 1006.0
20260505072506 17 223 6.4 19.3 0.00 0.00 0.00 65 1006.0
20260505072007 17 215 6.4 19.3 0.00 0.00 0.00 66 1006.1
20260505071530 17 205 4.8 20.9 0.00 0.00 0.00 66 1006.0
20260505071006 17 201 4.8 20.9 0.00 0.00 0.00 66 1006.0
20260505070511 17 185 4.8 17.7 0.00 0.00 0.00 66 1006.0
20260505070027 17 159 3.2 16.1 0.00 0.00 0.00 66 1006.0
20260505065509 17 207 6.4 16.1 0.00 0.00 0.00 65 1005.9
20260505065011 17 175 6.4 16.1 0.00 0.00 0.00 65 1005.9
20260505064528 17 194 3.2 12.9 0.00 0.00 0.00 66 1005.9
20260505064011 17 190 6.4 14.5 0.00 0.00 0.00 65 1005.9
20260505063509 17 240 6.4 16.1 0.00 0.00 0.00 66 1005.8
20260505063027 17 217 6.4 16.1 0.00 0.00 0.00 65 1005.9
20260505062511 17 178 4.8 16.1 0.00 0.00 0.00 65 1005.9
20260505062012 17 142 6.4 20.9 0.00 0.00 0.00 65 1005.7
20260505061520 17 158 3.2 20.9 0.00 0.00 0.00 65 1005.8
20260505061008 17 171 4.8 16.1 0.00 0.00 0.00 65 1005.8
20260505060510 17 183 4.8 14.5 0.00 0.00 0.00 65 1005.9
20260505060040 17 187 6.4 16.1 0.00 0.00 0.00 64 1005.8
20260505055513 17 229 4.8 16.1 0.00 0.00 0.00 64 1005.8
20260505055013 17 157 6.4 17.7 0.00 0.00 0.00 64 1005.9
20260505054527 17 297 8.0 19.3 0.00 0.00 0.00 64 1005.8
20260505054013 17 174 8.0 19.3 0.00 0.00 0.00 65 1005.9
20260505053509 17 183 4.8 14.5 0.00 0.00 0.00 65 1006.0
20260505053030 18 171 4.8 19.3 0.00 0.00 0.00 64 1006.1
20260505052509 18 175 6.4 19.3 0.00 0.00 0.00 64 1006.1
20260505052015 18 174 4.8 17.7 0.00 0.00 0.00 64 1006.2
20260505051529 18 191 4.8 17.7 0.00 0.00 0.00 64 1006.2
20260505051010 18 194 6.4 16.1 0.00 0.00 0.00 64 1006.4
20260505050512 18 193 4.8 17.7 0.00 0.00 0.00 63 1006.4
20260505041530 18 253 4.8 20.9 0.00 0.00 0.00 62 1006.3
20260505041010 18 212 6.4 20.9 0.00 0.00 0.00 62 1006.4
20260505040506 19 211 4.8 20.9 0.00 0.00 0.00 61 1006.5
20260505040022 19 179 4.8 27.4 0.00 0.00 0.00 61 1006.4
20260505035510 18 176 9.7 25.7 0.00 0.00 0.00 61 1006.4
20260505035010 18 320 6.4 16.1 0.00 0.00 0.00 62 1006.4
20260505034525 18 128 3.2 14.5 0.00 0.00 0.00 63 1006.3
20260505034007 18 360 3.2 17.7 0.00 0.00 0.00 63 1006.4
20260505033512 18 190 6.4 17.7 0.00 0.00 0.00 63 1006.4
20260505033028 18 209 3.2 14.5 0.00 0.00 0.00 63 1006.4
20260505032503 18 198 3.2 14.5 0.00 0.00 0.00 63 1006.3
20260505032003 18 151 4.8 14.5 0.00 0.00 0.00 63 1006.3
20260505031511 18 155 4.8 14.5 0.00 0.00 0.00 64 1006.2
20260505031004 18 171 3.2 14.5 0.00 0.00 0.00 65 1006.3
20260505030506 18 188 4.8 14.5 0.00 0.00 0.00 65 1006.2
20260505030016 18 154 4.8 12.9 0.00 0.00 0.00 65 1006.2
20260505025512 18 180 3.2 12.9 0.00 0.00 0.00 65 1006.2
20260505025007 18 215 3.2 12.9 0.00 0.00 0.00 65 1006.2
20260505024523 18 186 3.2 11.3 0.00 0.00 0.00 66 1006.1
20260505024007 18 167 3.2 11.3 0.00 0.00 0.00 65 1006.1
20260505023506 18 191 3.2 11.3 0.00 0.00 0.00 65 1006.1
20260505023025 18 166 3.2 9.7 0.00 0.00 0.00 65 1006.2
20260505022509 18 161 3.2 11.3 0.00 0.00 0.00 64 1006.2
20260505022013 18 173 3.2 11.3 0.00 0.00 0.00 64 1006.2
20260505021531 18 199 3.2 9.7 0.00 0.00 0.00 64 1006.2
20260505021007 19 171 1.6 11.3 0.00 0.00 0.00 64 1006.1
20260505020503 19 202 4.8 17.7 0.00 0.00 0.00 63 1006.1
20260505020012 19 136 4.8 17.7 0.00 0.00 0.00 63 1006.1
20260505015508 19 161 4.8 12.9 0.00 0.00 0.00 63 1006.1
20260505015010 18 161 4.8 14.5 0.00 0.00 0.00 63 1006.0
20260505014520 18 181 6.4 14.5 0.00 0.00 0.00 63 1006.0
20260505014010 18 181 3.2 9.7 0.00 0.00 0.00 63 1005.9
20260505013505 18 185 3.2 9.7 0.00 0.00 0.00 63 1005.8
20260505013021 18 189 3.2 9.7 0.00 0.00 0.00 62 1005.7
20260505012507 19 200 4.8 11.3 0.00 0.00 0.00 62 1005.7
20260505012011 19 177 4.8 11.3 0.00 0.00 0.00 62 1005.6
20260505011528 19 174 3.2 8.0 0.00 0.00 0.00 62 1005.7
20260505011008 19 187 3.2 9.7 0.00 0.00 0.00 61 1005.6
20260505010505 19 170 1.6 9.7 0.00 0.00 0.00 61 1005.6
20260505010002 19 190 3.2 8.0 0.00 0.00 0.00 61 1005.5
20260505005504 19 215 3.2 9.7 0.00 0.00 0.00 60 1005.4
20260505005004 20 161 3.2 9.7 0.00 0.00 0.00 60 1005.5
20260505004503 20 189 1.6 12.9 0.00 0.00 0.00 60 1005.6
20260505004003 20 161 4.8 12.9 0.00 0.00 0.00 59 1005.6
20260505003506 20 199 3.2 12.9 0.00 0.00 0.00 59 1005.6
20260505003004 20 223 4.8 11.3 0.00 0.00 0.00 59 1005.7
20260505002505 20 173 1.6 9.7 0.00 0.00 0.00 58 1005.6
20260505002004 20 153 3.2 9.7 0.00 0.00 0.00 57 1005.5
20260505001506 20 168 1.6 12.9 0.00 0.00 0.00 57 1005.5
20260505001004 20 235 1.6 14.5 0.00 0.00 0.00 56 1005.4
20260505000504 21 189 3.2 14.5 0.00 0.00 0.00 55 1005.4
20260505000019 21 212 4.8 12.9 0.00 0.00 0.00 54 1005.5
20260504235504 21 180 3.2 11.3 0.00 0.00 0.00 54 1005.6
20260504235004 21 238 1.6 12.9 0.00 0.00 0.00 54 1005.7
20260504234502 21 257 4.8 12.9 0.00 0.00 0.00 54 1005.7
20260504234003 21 220 4.8 19.3 0.00 0.00 0.00 52 1005.8
20260504233503 21 180 6.4 19.3 0.00 0.00 0.00 51 1005.8
20260504233005 21 159 9.7 19.3 0.00 0.00 0.00 51 1005.7
20260504232503 21 195 8.0 19.3 0.00 0.00 0.00 52 1005.7
20260504232004 21 170 8.0 25.7 0.00 0.00 0.00 52 1005.8
20260504231504 21 232 8.0 25.7 0.00 0.00 0.00 54 1005.9
20260504231003 21 202 1.6 17.7 0.00 0.00 0.00 56 1006.0
20260504230504 21 275 4.8 20.9 0.00 0.00 0.00 54 1006.0
20260504230006 21 165 6.4 20.9 0.00 0.00 0.00 54 1005.9
20260504225506 21 169 8.0 19.3 0.00 0.00 0.00 54 1006.2
20260504225009 21 190 3.2 19.3 0.00 0.00 0.00 55 1006.2
20260504224513 21 192 4.8 19.3 0.00 0.00 0.00 54 1006.4
20260504224003 21 149 3.2 19.3 0.00 0.00 0.00 55 1006.5
20260504223507 21 197 6.4 29.0 0.00 0.00 0.00 54 1006.6
20260504223007 21 199 9.7 29.0 0.00 0.00 0.00 54 1006.6
20260504222503 21 221 8.0 22.5 0.00 0.00 0.00 54 1006.7
20260504222002 21 199 6.4 22.5 0.00 0.00 0.00 54 1006.7
20260504221503 20 133 8.0 25.7 0.00 0.00 0.00 56 1006.7
20260504221003 20 173 6.4 25.7 0.00 0.00 0.00 56 1006.8
20260504220505 20 263 6.4 22.5 0.00 0.00 0.00 57 1006.8
20260504220006 20 177 4.8 22.5 0.00 0.00 0.00 58 1006.6
20260504215505 20 209 8.0 27.4 0.00 0.00 0.00 57 1006.7
20260504215003 20 24 6.4 27.4 0.00 0.00 0.00 57 1006.6
20260504214518 20 194 6.4 25.7 0.00 0.00 0.00 57 1006.8
20260504214010 20 138 8.0 25.7 0.00 0.00 0.00 56 1006.8
20260504213506 21 191 11.3 22.5 0.00 0.00 0.00 54 1006.8
20260504213016 21 96 9.7 35.4 0.00 0.00 0.00 53 1007.0
20260504212509 21 209 9.7 35.4 0.00 0.00 0.00 52 1007.0
20260504212010 21 221 9.7 30.6 0.00 0.00 0.00 51 1007.0
20260504211504 21 215 8.0 40.2 0.00 0.00 0.00 52 1006.9
20260504211003 21 205 11.3 40.2 0.00 0.00 0.00 52 1006.8
20260504210503 21 275 6.4 24.1 0.00 0.00 0.00 52 1006.7
20260504210003 21 333 8.0 20.9 0.00 0.00 0.00 54 1006.6
20260504205506 20 211 4.8 24.1 0.00 0.00 0.00 56 1006.7
20260504205005 20 242 9.7 24.1 0.00 0.00 0.00 53 1006.6
20260504204514 20 231 3.2 20.9 0.00 0.00 0.00 56 1006.8
20260504204003 20 239 6.4 24.1 0.00 0.00 0.00 56 1006.8
20260504203508 20 175 9.7 25.7 0.00 0.00 0.00 55 1007.0
20260504203012 20 188 9.7 24.1 0.00 0.00 0.00 57 1007.1
20260504202505 20 184 6.4 38.6 0.00 0.00 0.00 57 1007.2
20260504202008 21 315 14.5 37.0 0.00 0.00 0.00 55 1007.3
20260504201520 21 161 11.3 27.4 0.00 0.00 0.00 55 1007.5
20260504201008 21 308 11.3 35.4 0.00 0.00 0.00 55 1007.6
20260504200506 21 163 11.3 35.4 0.00 0.00 0.00 55 1007.7
20260504200020 21 160 14.5 41.8 0.00 0.00 0.00 54 1007.9
20260504195502 21 229 12.9 41.8 0.00 0.00 0.00 54 1007.9
20260504195003 22 168 14.5 37.0 0.00 0.00 0.00 51 1008.1
20260504194503 22 252 11.3 30.6 0.00 0.00 0.00 50 1007.7
20260504194003 22 352 6.4 30.6 0.00 0.00 0.00 50 1007.5
20260504193503 22 235 11.3 30.6 0.00 0.00 0.00 51 1007.5
20260504193019 22 221 9.7 25.7 0.00 0.00 0.00 51 1007.6
20260504192506 22 178 11.3 24.1 0.00 0.00 0.00 50 1007.5
20260504192005 22 194 6.4 32.2 0.00 0.00 0.00 49 1007.7
20260504191520 22 221 9.7 32.2 0.00 0.00 0.00 52 1007.5
20260504191005 22 194 11.3 29.0 0.00 0.00 0.00 51 1007.4
20260504190507 22 256 9.7 29.0 0.00 0.00 0.00 52 1007.3
20260504190020 22 275 4.8 25.7 0.00 0.00 0.00 49 1007.4
20260504185512 22 102 11.3 22.5 0.00 0.00 0.00 52 1007.4
20260504185015 22 312 9.7 20.9 0.00 0.00 0.00 52 1007.4
20260504184522 22 323 4.8 29.0 0.00 0.00 0.00 52 1007.3
20260504184004 22 252 6.4 29.0 0.00 0.00 0.00 52 1007.3
20260504183504 22 183 12.9 27.4 0.00 0.00 0.00 52 1007.4
20260504183008 22 197 6.4 25.7 0.00 0.00 0.00 54 1007.4
20260504182503 21 227 6.4 25.7 0.00 0.00 0.00 55 1007.6
20260504182004 21 225 6.4 24.1 0.00 0.00 0.00 54 1007.7